Updated03/06/2020 07:05 
 

GeoURL
free counters
Scottish Weather Network UK Weather Network Cumulus Top Weather Sites

Peebles Weather - Other Forecasts

Raw Data, Raw Data Expanded

Ignore low humidity and Dew Point values. Something wrong with the sensor.
Daytime temperatures are in direct sunlight so may be higher than official air temperature values.
As with any other website, we log your IP address and browser type in the server logs for diagnostic reasons. Cookies are used to record visit time and gauges preferences. No personal information is stored or processed.

All times are in local time (GMT, or BST in summer) unless specified.

2020/06/03 05:50 EGPH 030550Z 03007KT 9999 OVC025 09/06 Q1017
8.4°C 0.0 mm 8.4 mm 13.5 mm 7.4 mph 9.8 mph 1012.0 hPa 57% X-Ray Solar Flare Level
Planetary K-Index
Planetary K-Index History
Station Warn Rain Snow Flood Wind Ltng Heat Cold Glob Moon Temp Rain 1h Rain Wed Rain 24h Wind 10m Gust Pressure Hum Proton Levels
Lost sensor contact!!!
m Waxing Gibbous Cold F2-NW F: A: Kp:0 SSN:0

Forecasts from other sites

This weather forecast is generated by the Met Office Weather Widget

 

XHTML 1.1 | CSS